Flag for Germany Weather past 2 weeks in Gerolstein, Rhineland-Palatinate, Germany

Now
39 °F

Low clouds.


Feels Like: 33 °F
Forecast: 42 / 50 °F
Wind: 8 mph from West

Location: Nuerburg-Barweiler

Current Time: Oct 22, 2014 at 6:30:37 AM

Latest Report: Oct 22, 2014 at 6:00 AM


Visibility: 22 mi

Pressure: 30.00 "Hg

Humidity: 93%

Dew point: 37 °F

Location of GerolsteinLocation

Historic Weather in Gerolstein — Graph

°F

Gerolstein temperature yesterday

Maximum temperature yesterday: 51 °F (at 4:00 PM)
Minimum temperature yesterday: 41 °F (at 11:00 PM)
Average temperature yesterday: 47 °F

Past Weeks' High & Low Weather Summary

 TemperatureHumidityPressure
High67 °F (Oct 18, 4:00 PM)100% (Oct 11, 8:00 AM)30.14 "Hg (Oct 11, 8:00 AM)
Low40 °F (Oct 12, 8:00 AM)60% (Oct 14, 4:00 PM)29.55 "Hg (Oct 7, 9:00 AM)
Average54 °F90%29.87 "Hg
* Reported Oct 7 4:00 AM — Oct 22 4:00 AM, Gerolstein, Weather by CustomWeather, © 2014

Note: Actual official high and low records may vary slightly from our data, if they occured in-between our weather recording intervals... More about our weather records

Advertising

Gerolstein weather history for previous 24 hours

 ConditionsComfort  
Time TempWeatherWind HumidityBarometerVisibility
4:00 AM
Oct 22
40 °FLight rain. Low clouds.9 mph87%29.97 "Hg16 mi
3:00 AM41 °FOvercast.8 mph88%29.95 "Hg14 mi
2:00 AM41 °FRain. Low clouds.9 mph88%29.93 "Hg6 mi
1:00 AM41 °FPassing clouds.7 mph89%29.92 "Hg16 mi
12:00 AM41 °FLight freezing rain. Low clouds.10 mph89%29.88 "Hg11 mi
11:00 PM
Oct 21
41 °FLow clouds.8 mph89%29.85 "Hg34 mi
10:00 PM41 °FPassing clouds.8 mph86%29.81 "Hg37 mi
9:00 PM42 °FLow clouds.7 mph88%29.78 "Hg16 mi
8:00 PM42 °FLow clouds.9 mph89%29.75 "Hg22 mi
7:00 PM44 °FSprinkles. Low clouds.9 mph87%29.70 "Hg7 mi
6:00 PM46 °FPartly sunny.9 mph90%29.62 "Hg16 mi
4:00 PM51 °FRain. Low clouds.8 mph95%29.59 "Hg7 mi
3:00 PM50 °FLow clouds.7 mph93%29.64 "Hg9 mi
2:00 PM49 °FLow clouds.6 mph92%29.69 "Hg5 mi
1:00 PM49 °FSprinkles. Low clouds.7 mph88%29.74 "Hg9 mi
12:00 PM50 °FOvercast.7 mph86%29.77 "Hg11 mi
10:00 AM50 °FOvercast.7 mph87%29.84 "Hg17 mi
9:00 AM49 °FLow clouds.5 mph88%29.85 "Hg14 mi
8:00 AM49 °FLow clouds.6 mph91%29.86 "Hg16 mi
7:00 AM49 °FOvercast.6 mph93%29.88 "Hg16 mi
6:00 AM49 °FLow clouds.3 mph95%29.90 "Hg16 mi
Weather by CustomWeather, © 2014

See weather overviewHow to use our weather pages